This demonstration page uses our WeatherBlox Daily Observations layout. Learn more.

Left ArrowRight Arrow

Hourly Observations for July 12, 2016

Temp ( °F °C ) Dew Point ( °F °C ) Humidity (%) Winds ( mph kmh ) Pressure ( in mb ) Visibility ( mi km ) Precip ( " mm )
12:15 am 00:15 Clear 70 21 66 19 88 88 N N/A 30.09 1019 10 16 N/A
12:35 am 00:35 Clear 70 21 66 19 88 88 N N/A 30.09 1019 10 16 N/A
12:55 am 00:55 Clear 68 20 66 19 94 94 N N/A 30.09 1019 10 16 N/A
1:15 am 01:15 Clear 70 21 68 20 94 94 N N/A 30.09 1019 10 16 N/A
1:35 am 01:35 Clear 68 20 66 19 94 94 N N/A 30.09 1019 10 16 N/A
1:55 am 01:55 Clear 68 20 66 19 94 94 N N/A 30.09 1019 10 16 N/A
2:15 am 02:15 Clear 66 19 66 19 100 100 WSW 5 7 30.09 1019 10 16 N/A
2:35 am 02:35 Clear 68 20 66 19 94 94 N N/A 30.09 1019 10 16 N/A
2:55 am 02:55 Clear 70 21 66 19 88 88 N N/A 30.09 1019 10 16 N/A
3:15 am 03:15 Clear 70 21 66 19 88 88 N N/A 30.09 1019 10 16 N/A
3:35 am 03:35 Mostly Cloudy 68 20 66 19 94 94 N N/A 30.09 1019 10 16 N/A
3:55 am 03:55 Partly Cloudy 68 20 66 19 94 94 N N/A 30.09 1019 10 16 N/A
4:15 am 04:15 Mostly Cloudy 70 21 68 20 94 94 N N/A 30.09 1019 10 16 N/A
4:35 am 04:35 Mostly Cloudy 70 21 68 20 94 94 S 6 9 30.09 1019 10 16 N/A
4:55 am 04:55 Partly Cloudy 70 21 68 20 94 94 SE 6 9 30.09 1019 10 16 N/A
5:15 am 05:15 Mostly Cloudy 70 21 68 20 94 94 S 7 11 30.09 1019 10 16 N/A
5:35 am 05:35 Mostly Cloudy 70 21 68 20 94 94 N N/A 30.12 1020 10 16 N/A
5:55 am 05:55 Mostly Cloudy 68 20 68 20 100 100 N N/A 30.12 1020 10 16 N/A
6:15 am 06:15 Partly Cloudy 68 20 68 20 100 100 N N/A 30.09 1019 10 16 N/A
6:35 am 06:35 Sunny 68 20 68 20 100 100 N N/A 30.12 1020 10 16 N/A
6:55 am 06:55 Mostly Cloudy 70 21 68 20 94 94 N 3 6 30.12 1020 10 16 N/A
7:15 am 07:15 Cloudy 70 21 68 20 94 94 NW 5 7 30.12 1020 10 16 N/A
7:35 am 07:35 Mostly Cloudy 70 21 70 21 100 100 NW 3 6 30.12 1020 10 16 N/A
7:55 am 07:55 Sunny 72 22 70 21 94 94 N N/A 30.12 1020 10 16 N/A
8:15 am 08:15 Sunny 73 23 70 21 89 89 N N/A 30.12 1020 10 16 N/A
8:35 am 08:35 Mostly Cloudy 75 24 70 21 83 83 S 3 6 30.12 1020 10 16 N/A
8:55 am 08:55 Cloudy 77 25 70 21 79 79 SSW 5 7 30.12 1020 10 16 N/A
9:15 am 09:15 Mostly Cloudy 77 25 72 22 83 83 S 6 9 30.12 1020 10 16 N/A
9:35 am 09:35 Partly Cloudy 79 26 72 22 79 79 S 12 19 30.12 1020 10 16 N/A
9:55 am 09:55 Partly Cloudy 79 26 72 22 79 79 SSW 9 15 30.12 1020 10 16 N/A
10:15 am 10:15 Partly Cloudy 81 27 72 22 74 74 S 12 19 30.12 1020 10 16 N/A
10:35 am 10:35 Partly Cloudy 81 27 72 22 74 74 S 13 20 30.12 1020 10 16 N/A
10:55 am 10:55 Partly Cloudy 82 28 72 22 70 70 SSE 12 19 30.12 1020 10 16 N/A
11:15 am 11:15 Partly Cloudy 82 28 73 23 74 74 S 12 19 30.12 1020 10 16 N/A
11:35 am 11:35 Mostly Cloudy 82 28 72 22 70 70 S 13 20 30.12 1020 10 16 N/A
11:55 am 11:55 Mostly Cloudy 86 30 72 22 62 62 S 9 15 30.12 1020 10 16 N/A
12:15 pm 12:15 Partly Cloudy 86 30 73 23 66 66 S 13 20 30.12 1020 10 16 N/A
12:35 pm 12:35 Mostly Cloudy 86 30 72 22 62 62 S 12 19 30.12 1020 10 16 N/A
12:55 pm 12:55 Mostly Cloudy 86 30 72 22 62 62 S 16 26 30.12 1020 10 16 N/A
1:15 pm 13:15 Mostly Cloudy 86 30 72 22 62 62 SSE 9 15 30.12 1020 10 16 N/A
1:35 pm 13:35 Cloudy 86 30 72 22 62 62 S 9 15 30.12 1020 10 16 N/A
1:55 pm 13:55 Cloudy 88 31 72 22 59 59 S 14 22 30.09 1019 10 16 N/A
2:15 pm 14:15 Cloudy 86 30 72 22 62 62 S 16 26 30.09 1019 10 16 N/A
2:35 pm 14:35 Mostly Cloudy 88 31 72 22 59 59 S 15 24 30.09 1019 10 16 N/A
2:55 pm 14:55 Mostly Cloudy 86 30 72 22 62 62 SSW 14 22 30.09 1019 10 16 N/A
3:15 pm 15:15 Cloudy 86 30 72 22 62 62 S 12 19 30.06 1018 10 16 N/A
3:35 pm 15:35 Partly Cloudy 88 31 72 22 59 59 SSE 14 22 30.03 1017 10 16 N/A
3:55 pm 15:55 Partly Cloudy 88 31 72 22 59 59 SSE 10 17 30.03 1017 10 16 N/A
4:15 pm 16:15 Partly Cloudy 86 30 72 22 62 62 S 14 22 30.06 1018 10 16 N/A
4:35 pm 16:35 Mostly Cloudy 88 31 72 22 59 59 SSE 10 17 30.03 1017 10 16 N/A
4:55 pm 16:55 Mostly Cloudy 88 31 72 22 59 59 S 9 15 30.03 1017 10 16 N/A
5:15 pm 17:15 Partly Cloudy 86 30 72 22 62 62 S 13 20 30.03 1017 10 16 N/A
5:35 pm 17:35 Partly Cloudy 88 31 72 22 59 59 SSW 15 24 30.00 1016 10 16 N/A
5:55 pm 17:55 Sunny 88 31 72 22 59 59 S 10 17 30.03 1017 10 16 N/A
6:15 pm 18:15 Partly Cloudy 86 30 72 22 62 62 S 8 13 30.06 1018 10 16 N/A
6:35 pm 18:35 Partly Cloudy 86 30 72 22 62 62 S 13 20 30.06 1018 10 16 N/A
6:55 pm 18:55 Partly Cloudy 86 30 72 22 62 62 SSE 8 13 30.03 1017 10 16 N/A
7:15 pm 19:15 Partly Cloudy 86 30 72 22 62 62 SSE 9 15 30.03 1017 10 16 N/A
7:35 pm 19:35 Partly Cloudy 86 30 72 22 62 62 S 9 15 30.03 1017 10 16 N/A
7:55 pm 19:55 Mostly Cloudy 84 29 72 22 66 66 SSE 8 13 30.03 1017 10 16 N/A
8:15 pm 20:15 Mostly Cloudy 82 28 72 22 70 70 SSE 12 19 30.03 1017 10 16 N/A
8:35 pm 20:35 Mostly Cloudy 82 28 72 22 70 70 SSE 7 11 30.03 1017 10 16 N/A
8:55 pm 20:55 Cloudy 82 28 72 22 70 70 SSE 8 13 30.03 1017 10 16 N/A
9:15 pm 21:15 Mostly Cloudy 82 28 72 22 70 70 SSE 8 13 30.03 1017 10 16 N/A
9:35 pm 21:35 Partly Cloudy 81 27 72 22 74 74 SSE 9 15 30.03 1017 10 16 N/A
9:55 pm 21:55 Mostly Cloudy 81 27 72 22 74 74 S 13 20 30.06 1018 10 16 N/A
10:15 pm 22:15 Cloudy with Light Rain 81 27 72 22 74 74 SSE 8 13 30.06 1018 10 16 N/A
10:35 pm 22:35 Cloudy 81 27 72 22 74 74 S 10 17 30.06 1018 10 16 N/A
10:55 pm 22:55 Mostly Cloudy 81 27 72 22 74 74 S 10 17 30.06 1018 10 16 N/A
11:15 pm 23:15 Clear 79 26 72 22 79 79 SSE 7 11 30.06 1018 10 16 N/A
11:35 pm 23:35 Partly Cloudy 79 26 72 22 79 79 SE 7 11 30.06 1018 10 16 N/A
11:55 pm 23:55 Partly Cloudy 79 26 72 22 79 79 SSE 7 11 30.09 1019 10 16 N/A

Powered by AerisWeather